Showing default

LIZZIESAT-2, 62383

Orbit data source: Space-Track

LIZZIESAT-2, 62383 is a payload satellite owned by Sidus Space (US) in LEO that was launched on Sat, 21 Dec 2024 UTC via an FALCON 9 launch vehicle from the Air Force Western Test Range (AFWTR). Payload-class satellites include a variety of spacecraft equipped with specific instruments for various scientific and technological missions. These include communications satellites like Starlink; space stations such as the ISS; scientific satellites like the Hubble; Earth observation satellites from companies like Planet Labs, Umbra, and HawkEye 360; GPS; miniature CubeSats for education and research; and military/defense satellites.

Loading next visibility...
Identifier
62383, 2024-247G
Orbit
LEO
Country
Flag of USUS
Related business
Manufacturer
Sidus Space
Mission
Operational Commercial Technology
Bus & Motor
LIZZIESAT, Unknown motor
Mass
~100 kg wet, ~100 kg dry
Launch date (UTC)
2024-12-21 (2 years ago)
Launch vehicle
FALCON 9
Launch site
Air Force Western Test Range (AFWTR)
Object type
Payload
Rocket body
Debris
Shape & HBR
Oct Cyl + 8 Pan, 0.7 m
Radar Cross Section
1.008 m², Medium (>0.1 m² and < 1m²)

Expand to show TLE details & history
Last TLE update: 10 hours ago

TLE from 10 hours ago
0 LIZZIESAT-2
1 62383U 24247G   26253.49515523  .00006220  00000-0  21382-3 0  9992
2 62383  44.9908 183.7219 0001446 344.9601  15.1240 15.30966679 96045
Epoch: 2026-09-10T11:53Z
TLE epoch observation values (Epoch: 2026-09-10T11:53:01.411Z)
Latitude
-0.00004°
Longitude
15.93394°
Altitude
471.968 km
Speed
7.632 km/s
True Right ascension
12h 14m 53s
True Declination
0° 00' 00"
Sunlit
Object was in daylight at epoch
Visualization orbit readout
Latitude
Unknown
Longitude
Unknown
Altitude
Unknown
Speed
Unknown
Apparent Right ascension
Unknown
Apparent Declination
Unknown
Sunlit
N/A
Visualization observer readout
Local Sidereal Time
14:21:06
Azimuth
Unknown
Elevation
Unknown
Doppler factor
Unknown
Orbital elements
Apogee altitude
475.531 km
Perigee altitude
473.549 km
Semi-major axis
6,852.677 km
Eccentricity
0.00014
Inclination
44.9908°
RAAN
183.7219°
Arg. of periapsis
344.9601°
True anomaly
15.12832°
Mean anomaly
15.124°
Eccentric anomaly
15.12616°
Mean motion
3.82607 °/min
Orbital period
94.09 mins
BSTAR
0.00021382
Loading maneuver chart data...
Computing Atmospheric mass density...
Loading historical data...
Loading historical data...
Loading historical data...
Loading historical data...
Loading historical data...
Loading historical data...
Loading historical data...

Documentation

Showing up to 5 results
|